TimeHDT,TemperatureF,Dew PointF,Humidity,Sea Level PressureIn,VisibilityMPH,Wind Direction,Wind SpeedMPH,Gust SpeedMPH,PrecipitationIn,Events,Conditions,WindDirDegrees,DateUTC
12:17 AM,44.6,42.8,93,30.11,10.0,SE,23.0,-,N/A,,Overcast,140,2012-10-25 09:17:00
12:56 AM,44.1,43.0,96,30.12,10.0,SSE,25.3,-,N/A,,Overcast,150,2012-10-25 09:56:00
1:56 AM,44.1,42.1,93,30.11,10.0,SE,28.8,33.4,N/A,,Overcast,140,2012-10-25 10:56:00
2:32 AM,44.6,42.8,93,30.11,10.0,SE,28.8,33.4,N/A,,Overcast,140,2012-10-25 11:32:00
2:56 AM,44.1,42.1,93,30.12,10.0,SE,26.5,-,N/A,,Overcast,140,2012-10-25 11:56:00
3:56 AM,43.0,42.1,97,30.13,10.0,SSE,23.0,-,N/A,,Overcast,150,2012-10-25 12:56:00
4:56 AM,43.0,42.1,97,30.14,10.0,SE,24.2,-,N/A,,Overcast,140,2012-10-25 13:56:00
5:56 AM,43.0,42.1,97,30.15,6.0,SSE,18.4,-,N/A,,Overcast,150,2012-10-25 14:56:00
6:56 AM,43.0,43.0,100,30.16,5.0,SE,18.4,-,N/A,,Overcast,140,2012-10-25 15:56:00
7:56 AM,43.0,43.0,100,30.16,10.0,SSE,16.1,-,N/A,,Overcast,150,2012-10-25 16:56:00
8:12 AM,42.8,42.8,100,30.16,10.0,SE,16.1,-,N/A,,Overcast,140,2012-10-25 17:12:00
8:21 AM,42.8,42.8,100,30.17,10.0,SE,17.3,-,N/A,,Overcast,140,2012-10-25 17:21:00
8:30 AM,42.8,42.8,100,30.17,10.0,SE,21.9,-,N/A,,Overcast,140,2012-10-25 17:30:00
8:37 AM,42.8,42.8,100,30.17,10.0,SE,19.6,-,N/A,,Overcast,140,2012-10-25 17:37:00
8:56 AM,43.0,43.0,100,30.19,9.0,SE,17.3,-,N/A,,Overcast,130,2012-10-25 17:56:00
9:19 AM,42.8,42.8,100,30.18,6.2,SE,17.3,-,N/A,,Overcast,140,2012-10-25 18:19:00
9:36 AM,42.8,42.8,100,30.18,10.0,SE,19.6,-,N/A,,Overcast,130,2012-10-25 18:36:00
9:56 AM,43.0,42.1,97,30.19,10.0,SE,17.3,-,N/A,,Overcast,130,2012-10-25 18:56:00
10:56 AM,43.0,42.1,97,30.21,7.0,ESE,15.0,-,N/A,,Overcast,120,2012-10-25 19:56:00
11:56 AM,43.0,42.1,97,30.22,7.0,ESE,18.4,-,N/A,,Overcast,120,2012-10-25 20:56:00
12:31 PM,42.8,42.8,100,30.23,6.2,ESE,18.4,-,N/A,,Overcast,120,2012-10-25 21:31:00
12:56 PM,43.0,42.1,97,30.24,10.0,SE,16.1,-,N/A,,Overcast,130,2012-10-25 21:56:00
1:19 PM,42.8,42.8,100,30.24,10.0,SE,16.1,-,N/A,,Overcast,140,2012-10-25 22:19:00
1:28 PM,42.8,42.8,100,30.24,10.0,SE,13.8,-,N/A,,Overcast,140,2012-10-25 22:28:00
1:56 PM,43.0,42.1,97,30.25,10.0,SE,16.1,-,N/A,,Overcast,130,2012-10-25 22:56:00
2:56 PM,44.1,42.1,93,30.24,10.0,ESE,12.7,-,N/A,,Overcast,120,2012-10-25 23:56:00
3:56 PM,44.1,42.1,93,30.24,10.0,SE,13.8,-,N/A,,Overcast,130,2012-10-26 00:56:00
4:17 PM,42.8,42.8,100,30.23,10.0,SE,11.5,-,N/A,,Overcast,130,2012-10-26 01:17:00
4:56 PM,44.1,42.1,93,30.24,10.0,ESE,10.4,-,N/A,,Overcast,120,2012-10-26 01:56:00
5:14 PM,42.8,41.0,93,30.24,10.0,SE,11.5,-,N/A,,Overcast,130,2012-10-26 02:14:00
5:49 PM,42.8,41.0,93,30.24,6.2,ESE,11.5,-,N/A,,Overcast,120,2012-10-26 02:49:00
5:56 PM,42.1,41.0,96,30.25,9.0,ESE,11.5,-,N/A,,Overcast,120,2012-10-26 02:56:00
6:56 PM,41.0,39.0,93,30.25,10.0,ESE,11.5,-,N/A,,Overcast,120,2012-10-26 03:56:00
7:56 PM,42.1,39.0,89,30.26,9.0,East,9.2,-,N/A,,Overcast,100,2012-10-26 04:56:00
8:21 PM,42.8,37.4,81,30.26,10.0,ESE,10.4,-,N/A,,Overcast,120,2012-10-26 05:21:00
8:56 PM,43.0,37.0,80,30.27,10.0,East,11.5,-,N/A,,Overcast,100,2012-10-26 05:56:00
9:56 PM,43.0,36.0,76,30.27,10.0,East,12.7,-,N/A,,Overcast,100,2012-10-26 06:56:00
10:56 PM,43.0,35.1,74,30.28,10.0,East,9.2,-,N/A,,Overcast,100,2012-10-26 07:56:00
11:56 PM,43.0,35.1,74,30.28,10.0,East,12.7,-,N/A,,Overcast,90,2012-10-26 08:56:00